Regional Weather Roundup
Issued by NWS Cleveland, OH

Home | Current Version | Previous Version | Graphics & Text | Print | Product List | Glossary On
Versions: 1 2 3 4 5 6 7 8 9 10 11 12 13 14 15 16 17 18 19 20 21 22 23 24 25 26 27 28 29 30 31 32 33 34 35 36 37 38 39 40 41 42 43 44 45 46 47 48 49 50
000
ASUS41 KCLE 021112
RWRCLE
OHIO REGIONAL WEATHER ROUNDUP
NATIONAL WEATHER SERVICE WILMINGTON, OH
700 AM EDT MON MAY 02 2016

NOTE: "FAIR" INDICATES FEW OR NO CLOUDS BELOW 12,000 FEET WITH NO
SIGNIFICANT WEATHER AND/OR OBSTRUCTIONS TO VISIBILITY.

OHZ001>008-015>018-024>027-034-035-043-044-021200-
   NORTHWEST OHIO

CITY           SKY/WX    TMP DP  RH WIND       PRES   REMARKS
DEFIANCE       LGT RAIN  47  45  93 N6        29.98R FOG
FINDLAY        CLOUDY    49  44  83 N10       29.95R
TOLEDO EXPRESS LGT RAIN  47  46  97 NE7       29.97R
TOLEDO EXEC    CLOUDY    47  44  90 NE6       29.98R
LIMA           CLOUDY    49  47  93 N8        29.94R
$$

OHZ009>014-019>023-028>033-038-089-021200-
   NORTHEAST OHIO

CITY           SKY/WX    TMP DP  RH WIND       PRES   REMARKS
CLE-HOPKINS    CLOUDY    47  44  90 NE10      29.91F
CLE-LAKEFRONT  CLOUDY    47  44  90 E7        29.89F
CUY CO. ARPT   CLOUDY    46  45  93 E9        29.88  FOG
LORAIN-ELYRIA  CLOUDY    45  42  89 NE12      29.91R
ASHTABULA      LGT RAIN  43  43 100 E12G18    29.88F
AKRON-CANTON   CLOUDY    49  46  90 S6        29.88S
WOOSTER        MOCLDY    47  46  97 CALM      29.90R
MANSFIELD      MOCLDY    47  46  97 CALM      29.90R
YOUNGSTOWN     CLOUDY    46  44  93 N5        29.88F
$$

OHZ042-051>053-060>062-070>072-077>081-021200-
  SOUTHWEST OHIO

CITY           SKY/WX    TMP DP  RH WIND       PRES   REMARKS
CINC-COVINGTON CLOUDY    59  58  96 W8        29.94R
CINC-LUNKEN    CLOUDY    58  58 100 SW6       29.94R
HAMILTON       CLOUDY    59  58  96 W6        29.94R
DAYTON         FOG       53  53 100 W7        29.93R VSB 1/4
WRIGHT-PAT AFB FOG       55  55 100 N2        29.91R VSB 1
DAYTON GENERAL CLOUDY    59  56  89 W5        29.91R
WILMINGTON     CLOUDY    58  58 100 SW7       29.92R FOG
$$

OHZ036-037-039>041-045>050-054>059-063>069-073>076-082>088-021200-
  CENTRAL AND SOUTHEAST OHIO

CITY           SKY/WX    TMP DP  RH WIND       PRES   REMARKS
COLUMBUS       CLOUDY    54  54 100 N3        29.90R FOG
OSU AIRPORT    CLOUDY    53  52  96 CALM      29.91R
BOLTON FIELD   CLOUDY    55  55 100 N3        29.91R
RICKENBACK AFB CLOUDY    57  57 100 NW5       29.90R FOG
NEWARK         MOCLDY    57  54  89 CALM      29.90R
MARION         FAIR      48  46  93 CALM      29.91R
LANCASTER      CLOUDY    59  57  93 S5        29.91R FOG
ZANESVILLE     CLOUDY    60  57  89 CALM      29.91R
NEW PHILLY     CLOUDY    55  54  96 NW3       29.90R
$$



USA.gov is the U.S. government's official web portal to all federal, state and local government web resources and services.